Location: Burzi?i
(45.0869°N, 16.0577°E)
Time: 08:35:43
(UTC+00:00)

USA 305 - Pass Details

Date: 29 October 2020
Orbit: 569 x 577 km, 54.0° (Epoch: 22 November)

Event Time Altitude Azimuth Distance (km) Brightness Sun altitude
Rises 16:11:09 0° 303° (WNW) 2,788 7.1 -4.8°
Reaches altitude 10° 16:13:35 10° 313° (NW) 1,887 6.0 -5.2°
Maximum altitude 16:17:32 35° 19° (NNE) 940 3.8 -5.9°
Drops below altitude 10° 16:21:28 10° 86° (E) 1,877 4.9 -6.6°
Enters shadow 16:21:58 - 89° (E) 2,057 5.1 -6.7°
